Regional Weather Roundup
Issued by NWS

Home | Current Version | Previous Version | Text Only | Print | Product List | Glossary On
Versions: 1 2 3 4 5 6 7 8 9 10 11 12 13 14 15 16 17 18 19 20 21 22 23 24 25 26 27
000
ASUS45 KBOU 211110
RWRCO

WEATHER ROUNDUP FOR COLORADO
NATIONAL WEATHER SERVICE DENVER/BOULDER CO
400 AM MST SUN JAN 21 2018

NOTE: "FAIR" INDICATES FEW OR NO CLOUDS BELOW 12000 FEET WITH NO
SIGNIFICANT WEATHER AND/OR OBSTRUCTIONS TO VISIBILITY.

COZ001>005-013-030-031-211200-
...NORTHWEST COLORADO...

CITY           SKY/WX    TMP DP  RH WIND       PRES   REMARKS
CRAIG          LGT SNOW  22  18  85 SW12      29.73F FOG     WCI  10
HAYDEN         LGT SNOW N/A N/A N/A W9        29.72F
MEEKER         LGT SNOW  23  19  85 N3        29.72S VSB 3/4
RABBIT EARS PA LGT SNOW  18  16  93 MISG      29.64F
STEAMBOAT SPGS CLOUDY    23  22  97 CALM      29.68R
WALDEN         CLOUDY    19  16  86 CALM      29.68F
$$

COZ006>008-011-211200-
...WEST CENTRAL VALLEYS...

CITY           SKY/WX    TMP DP  RH WIND       PRES   REMARKS
GRAND JUNCTION LGT SNOW  29  29 100 W9        29.74S VSB 1   WCI  20
MONTROSE       CLOUDY    30  19  63 N6        29.72S WCI  24
EAGLE          CLOUDY    29  26  89 CALM      29.66F
RIFLE          MIX PCPN  31  28  89 NW10      29.67F WCI  22
DELTA          MOCLDY    34  29  82 CALM      29.71F
NUCLA          CLOUDY    28  23  80 W8        29.78S WCI  20
$$

COZ017>023-064>068-211200-
...SOUTHWEST COLORADO...

CITY           SKY/WX    TMP DP  RH WIND       PRES   REMARKS
DURANGO        MOCLDY    25  25 100 W3        29.73F
CORTEZ         CLOUDY    26  23  88 CALM      29.76F
PAGOSA SPRINGS CLOUDY    26  26  98 SW7       29.70F WCI  19
TELLURIDE      FAIR      18  15  89 W5        29.68F WCI  11
WOLF CREEK PAS SNOW      10  10 100 MISG      29.66F VSB 1/2
$$

COZ009-010-012-014-032>034-037-058>063-211200-
...CENTRAL COLORADO...

CITY           SKY/WX    TMP DP  RH WIND       PRES   REMARKS
ASPEN          CLOUDY    28  23  81 SW3       29.60F
BUENA VISTA    CLOUDY    28  26  90 SE9       29.63F WCI  19
COPPER MTN     NOT AVBL
BERTHOUD PASS  SNOW      12   0  57 MISG      29.65S VSB 1/2
COTTONWOOD PAS FOG       28  28 100 SE14      29.63F VSB 1/4 WCI  17
GUNNISON       LGT SNOW  25  23  92 SW8       29.64F FOG     WCI  16
KREMMLING      LGT SNOW  32  28  86 CALM      29.68F
LEADVILLE      CLOUDY    20  17  88 N5        29.61F WCI  13
MONARCH PASS   CLOUDY    12  10  92 SW9       29.73F WCI   0
SALIDA         CLOUDY    31  28  86 E3        29.72F
SUNLIGHT       LGT SNOW  16  12  86 SW13G18   29.66F WCI   2
WILKERSON PASS LGT SNOW  18  14  86 S10       29.68F VSB 3/4 WCI   6
$$

COZ069>075-211200-
...SAN LUIS VALLEY/SANGRE DE CRISTO MOUNTAINS...

CITY           SKY/WX    TMP DP  RH WIND       PRES   REMARKS
ALAMOSA        MOCLDY    26  21  81 SE20      29.67F WCI  12
DEL NORTE      MOCLDY    25  16  68 S7        29.68R WCI  17
LA VETA PASS   CLOUDY    19  14  79 S23G41      N/A  WCI   2
SAGUACHE       CLOUDY    30  23  74 S10G16    29.67R WCI  21
$$

COZ035-036-038>040-211200-
...NORTHERN COLORADO FRONT RANGE...

CITY           SKY/WX    TMP DP  RH WIND       PRES   REMARKS
DENVER INTL AP LGT SNOW  27  24  89 NE12      29.78S FOG     WCI  17
DMNS CITY PARK NOT AVBL
AURORA         NOT AVBL
FRONT RANGE AP CLOUDY    29  28  96 NE13      29.79S FOG     WCI  19
ERIE MUNI ARPT LGT SNOW  28  27  96 N5        29.86S VSB 3/4 WCI  23
BOULDER MUN AP LGT SNOW  28  28 100 N3        29.81R VSB 1
CENTENNIAL     FRZ DRZL  26  25  96 NE8       29.76F WCI  18
BROOMFIELD     LGT SNOW  28  28 100 N7        29.80R VSB 3/4 WCI  21
FORT COLLINS   LGT SNOW  27  26  96 N9        29.82F FOG     WCI  18
LONGMONT       LGT SNOW  30  28  92 N5        29.84R WCI  25
$$

COZ041-046-047-076>085-087-088-211200-
...PIKES PEAK/PALMER DIVIDE AND SOUTHERN FOOTHILLS...

CITY           SKY/WX    TMP DP  RH WIND       PRES   REMARKS
COLO. SPRINGS  LGT SNOW  29  26  89 CALM      29.72S FOG
A. F. ACADEMY  FLURRIES  26  24  89 N13       29.70F WCI  15
SCHRIEVER AFB  FLURRIES  27  25  92 NE9       29.72F WCI  17
CHEYENNE MTN   LGT SNOW  26  25  98 N12       29.65S WCI  15
ELLICOTT       CLOUDY   N/A N/A N/A N8        29.71S
FALCON         CLOUDY    25  24  95 N12G17    29.71F WCI  14
FORT CARSON    LGT SNOW  27  25  94 S6        29.72R FOG     WCI  20
LIMON          CLOUDY    25  25 100 N14       29.76R FOG     WCI  13
MONUMENT HILL  LGT SNOW  23  21  93 N8        29.74S WCI  14
CANON CITY     CLOUDY    32  30  93 E3        29.73R
WALSENBURG     CLOUDY    30  28  93 NE5       29.70S WCI  25
TRINIDAD       LGT SNOW  28  25  88 E3        29.71F FOG
$$

COZ042>045-048>051-090-091-211200-
...NORTHEAST COLORADO...

CITY           SKY/WX    TMP DP  RH WIND       PRES   REMARKS
GREELEY ARPT   LGT SNOW  28  27  93 N6        29.84R FOG     WCI  22
AKRON          FRZ RAIN  27  26  96 NE16      29.78F FOG     WCI  15
BURLINGTON     CLOUDY    29  27  92 N15       29.75S WCI  18
WRAY           CLOUDY    32  28  86 NE15      29.80F WCI  22
YUMA           CLOUDY    28  27  93 N10       29.80S WCI  19
STERLING       MIX PCPN  32  30  93 NE9       29.82F WCI  24
HOLYOKE        CLOUDY    34  30  86 NE14G20   29.82S WCI  24
FORT MORGAN    CLOUDY    28  26  91 NE13      29.82S FOG     WCI  18
$$

COZ086-089-092>099-211200-
...SOUTHEAST COLORADO...

CITY           SKY/WX    TMP DP  RH WIND       PRES   REMARKS
PUEBLO         CLOUDY    33  26  75 E5        29.75S WCI  29
LA JUNTA       CLOUDY    33  25  72 CALM      29.78R
LAMAR          CLOUDY    32  27  81 N7        29.74R WCI  26
SPRINGFIELD      N/A     27  27 100 N16       29.71S WCI  15
$$




USA.gov is the U.S. government's official web portal to all federal, state and local government web resources and services.